Location: St Paul
(33.4390°N, 83.7350°W)
Time: 09:52:40
(UTC-05:00)

Cosmos 2322 Rocket - Pass Details

Date: 06 October 2017
Orbit: 833 x 850 km, 71.0° (Epoch: 10 December)

Event Time Altitude Azimuth Distance (km) Brightness Sun altitude
Rises 22:09:46 0° 334° (NNW) 3,383 5.9 -37.3°
Reaches altitude 10° 22:12:14 10° 330° (NNW) 2,446 5.1 -37.8°
Enters shadow 22:14:30 25° 322° (NW) 1,641 4.1 -38.2°
